Weather in Verkhnia Syrovatka

Ukraine / Sumi District     50°49′59″N   34°56′58″E
temp.,
°C
wind,
m/s
gust,
m/s
humid.,
%
clouds,
%
prec.,
mm/h
press.,
hPa
HPBL,
m
17 october, sun
sun1700:00+9nw226384 0.0 101965
03:00+6nnw228866 0.0 101922
06:00+5nnw229399 0.0 101931
09:00+7n2283100 0.0 1019136
12:00+11nw226214 0.0 1019572
15:00+13nw33515 0.0 10171108
18:00+9nw33695 0.0 101835
21:00+7nw337933 0.0 101851
18 october, mon
mon1800:00+6nw34845 0.0 101863
03:00+5wnw228499 0.0 101830
06:00+4wnw3477100 0.0 101884
09:00+6wnw356792 0.0 1019206
12:00+9w4552100 0.0 1018786
15:00+10w5752100 0.0 10171083
18:00+8w3761100 0.0 1017341
21:00+8w4965100 0.0 1016480
19 october, tue
tue1900:00+7w4674100 0.1 10161015
03:00+6wnw5889100 0.9 1016881
06:00+5n588963 0.6 1017589
09:00+5nnw478495 0.6 1018437
12:00+8nw68522 0.0 10191305
15:00+8nw785091 0.0 10201793
18:00+6nnw6106085 0.1 1022837
21:00+5nnw586891 0.1 10231064
20 october, wed
wed2000:00+4nw5970100 0.0 1024926
03:00+4nw486995 0.1 1025740
06:00+1nw388693 0.0 1027218
09:00+2nw35738 0.0 1028328
12:00+6wnw345259 0.0 10271007
15:00+7w4544100 0.0 10261164
18:00+6wsw3453100 0.0 102679
21:00+4ssw366381 0.0 1025124
21 october, thu
thu2100:00+3ssw41067100 0.0 1024244
03:00+4ssw51362100 0.0 1022325
06:00+5ssw61455100 0.0 1021392
09:00+6ssw71660100 0.0 1019491
12:00+11ssw9165957 0.0 1018785
15:00+13ssw91557100 0.0 1016996
18:00+12ssw81658100 0.0 1015885
21:00+11ssw8166498 0.0 1013678